Location: Marne
(34.0056°N, 117.9064°W)
Time: 03:59:20
(UTC+00:00)

Cosmos 1610 Rocket - Pass Details

Date: 18 January 2020
Orbit: 953 x 1002 km, 82.9° (Epoch: 17 February)

Event Time Altitude Azimuth Distance (km) Brightness Sun altitude
Rises 01:38:58 0° 178° (S) 3,620 7.7 -6.9°
Reaches altitude 10° 01:41:28 10° 175° (S) 2,674 7.0 -7.4°
Maximum altitude 01:47:31 70° 93° (E) 1,011 4.4 -8.6°
Drops below altitude 10° 01:53:37 10° 11° (NNE) 2,688 6.5 -9.8°
Sets 01:56:07 0° 9° (N) 3,640 7.2 -10.3°
